Simultaneous Nadir Overpasses (SNOs) Predictions

Prediction of SNOs between AQUA and NOAA-19 Satellite Orbit:

Table of predicted SNOs for the next 14.0 days since TLE Epoch: 1/28/2024
Index Date (AQUA) Time (AQUA) Lat,Lon (AQUA) SZA (AQUA ) Date (NOAA-19) Time (NOAA-19) Lat,Lon (NOAA-19) SZA (NOAA-19 ) Distance(km) Time Diff (sec)
1 01/29/2024 21:24:35 75.89,-146.19 93.84 01/29/2024 21:24:00 75.92,-146.26 93.87 3.37 35
2 01/29/2024 22:13:59 -75.99, 21.18 86.07 01/29/2024 22:15:02 -76.00, 21.26 86.07 2.74 63
3 02/01/2024 02:05:12 75.96, 143.50 93.31 02/01/2024 02:05:10 75.94, 143.59 93.29 3.06 2
4 02/03/2024 05:56:21 -75.87, -94.00 87.41 02/03/2024 05:55:26 -75.89, -94.10 87.38 3.49 55
5 02/03/2024 06:45:47 75.97, 73.34 92.69 02/03/2024 06:46:20 75.96, 73.41 92.67 2.26 33
6 02/05/2024 10:36:56 -75.93,-164.28 88.00 02/05/2024 10:36:35 -75.92,-164.22 88.00 1.64 21
7 02/05/2024 11:26:21 75.98, 3.20 92.05 02/05/2024 11:27:30 75.96, 3.20 92.03 1.94 69
8 02/07/2024 14:28:00 75.60, -41.05 90.98 02/07/2024 14:26:51 75.54, -43.01 91.01 54.83 69
9 02/07/2024 15:17:29 -75.93, 125.60 88.67 02/07/2024 15:17:44 -75.94, 125.62 88.66 1.30 15
10 02/09/2024 19:08:38 75.90,-112.05 90.61 02/09/2024 19:07:53 75.89,-112.04 90.61 0.94 45



Historial Predications of SNOs between AQUA and NOAA-19
